• In Hungary
  • List of Countries
  • For 7 days
  • Water Temperature
  • Satellite Maps
  • Weather Map
  • News
  • Weather Widgets
  • user-avatar
    Login

    Hourly Weather Peremoha

    Today, 21 June, Thursday

    Time Temperature Precipitation Wind Pressure Humidity
    00:00 +25°C° 0.1 mm 3 mps 758 mmHg 70%
    01:00 +25°C° 0.1 mm 3 mps 758 mmHg 73%
    02:00 +24°C° 0 mm 2 mps 758 mmHg 74%
    03:00 +24°C° 0 mm 2 mps 758 mmHg 75%
    04:00 +23°C° 0 mm 2 mps 758 mmHg 76%
    05:00 +23°C° 0 mm 2 mps 758 mmHg 78%
    06:00 +25°C° 0 mm 3 mps 758 mmHg 71%
    07:00 +27°C° 0 mm 3 mps 758 mmHg 64%
    08:00 +28°C° 0 mm 3 mps 758 mmHg 54%
    09:00 +29°C° 0 mm 3 mps 758 mmHg 50%
    10:00 +30°C° 0 mm 2 mps 757 mmHg 46%
    11:00 +31°C° 0 mm 2 mps 757 mmHg 41%
    12:00 +32°C° 0 mm 2 mps 757 mmHg 40%
    13:00 +32°C° 0 mm 2 mps 756 mmHg 39%
    14:00 +34°C° 0 mm 2 mps 756 mmHg 37%
    15:00 +32°C° 0 mm 2 mps 756 mmHg 39%
    16:00 +32°C° 0 mm 2 mps 755 mmHg 41%
    17:00 +31°C° 0 mm 2 mps 755 mmHg 42%
    18:00 +30°C° 0 mm 2 mps 755 mmHg 47%
    19:00 +28°C° 0 mm 2 mps 754 mmHg 51%
    20:00 +27°C° 0 mm 3 mps 754 mmHg 56%
    21:00 +26°C° 0 mm 2 mps 754 mmHg 57%
    22:00 +25°C° 0 mm 2 mps 754 mmHg 58%
    23:00 +25°C° 0 mm 2 mps 754 mmHg 60%

    Tomorrow, 22 June, Friday

    Time Temperature Precipitation Wind Pressure Humidity
    00:00 +24°C° 0 mm 2 mps 754 mmHg 60%
    01:00 +24°C° 0 mm 2 mps 753 mmHg 61%
    02:00 +24°C° 0 mm 2 mps 753 mmHg 62%
    03:00 +24°C° 0 mm 1 mps 753 mmHg 64%
    04:00 +23°C° 0 mm 1 mps 753 mmHg 65%
    05:00 +23°C° 0 mm 1 mps 752 mmHg 67%
    06:00 +25°C° 0 mm 1 mps 752 mmHg 62%
    07:00 +27°C° 0 mm 2 mps 753 mmHg 58%
    08:00 +28°C° 0 mm 2 mps 753 mmHg 53%
    09:00 +30°C° 0 mm 2 mps 752 mmHg 49%
    10:00 +31°C° 0 mm 3 mps 752 mmHg 45%
    11:00 +33°C° 0 mm 3 mps 752 mmHg 41%
    12:00 +33°C° 0 mm 3 mps 752 mmHg 41%
    13:00 +33°C° 0 mm 3 mps 752 mmHg 41%
    14:00 +33°C° 0 mm 3 mps 751 mmHg 42%
    15:00 +33°C° 0 mm 3 mps 751 mmHg 44%
    16:00 +31°C° 0 mm 3 mps 751 mmHg 46%
    17:00 +32°C° 0 mm 4 mps 751 mmHg 48%
    18:00 +29°C° 0.8 mm 3 mps 751 mmHg 56%
    19:00 +27°C° 0.8 mm 3 mps 751 mmHg 63%
    20:00 +25°C° 0.8 mm 3 mps 751 mmHg 71%
    21:00 +23°C° 1.8 mm 4 mps 751 mmHg 76%
    22:00 +23°C° 1.8 mm 4 mps 751 mmHg 80%
    23:00 +22°C° 1.8 mm 5 mps 751 mmHg 84%

    Day after tomorrow, 23 June, Saturday

    Time Temperature Precipitation Wind Pressure Humidity
    00:00 +21°C° 0.7 mm 5 mps 751 mmHg 86%
    01:00 +20°C° 0.7 mm 5 mps 751 mmHg 88%
    02:00 +20°C° 0.7 mm 6 mps 751 mmHg 90%
    03:00 +19°C° 0 mm 6 mps 751 mmHg 88%
    04:00 +17°C° 0 mm 7 mps 751 mmHg 87%
    05:00 +17°C° 0 mm 7 mps 751 mmHg 85%
    06:00 +17°C° 0 mm 8 mps 752 mmHg 82%
    07:00 +17°C° 0 mm 8 mps 752 mmHg 78%
    08:00 +18°C° 0 mm 8 mps 752 mmHg 75%
    09:00 +18°C° 0 mm 8 mps 753 mmHg 73%
    10:00 +18°C° 0 mm 8 mps 753 mmHg 70%
    11:00 +18°C° 0 mm 9 mps 753 mmHg 68%
    12:00 +18°C° 0.1 mm 9 mps 754 mmHg 69%
    13:00 +17°C° 0.1 mm 9 mps 754 mmHg 70%
    14:00 +16°C° 0.1 mm 9 mps 754 mmHg 72%
    15:00 +17°C° 0 mm 8 mps 754 mmHg 68%
    16:00 +17°C° 0 mm 7 mps 754 mmHg 64%
    17:00 +18°C° 0 mm 7 mps 754 mmHg 60%
    18:00 +17°C° 0 mm 6 mps 755 mmHg 63%
    19:00 +17°C° 0 mm 4 mps 755 mmHg 66%
    20:00 +16°C° 0 mm 3 mps 755 mmHg 68%
    21:00 +16°C° 0 mm 2 mps 756 mmHg 71%
    22:00 +15°C° 0 mm 2 mps 756 mmHg 73%
    23:00 +15°C° 0 mm 1 mps 756 mmHg 76%

    24 June, Sunday

    Time Temperature Precipitation Wind Pressure Humidity
    00:00 +14°C° 0 mm 2 mps 757 mmHg 77%
    01:00 +14°C° 0 mm 2 mps 757 mmHg 77%
    02:00 +14°C° 0 mm 2 mps 757 mmHg 78%
    03:00 +14°C° 0 mm 2 mps 757 mmHg 78%
    04:00 +14°C° 0 mm 2 mps 757 mmHg 78%
    05:00 +14°C° 0 mm 2 mps 757 mmHg 77%
    06:00 +15°C° 0 mm 2 mps 757 mmHg 70%
    07:00 +17°C° 0 mm 2 mps 758 mmHg 62%
    08:00 +19°C° 0 mm 3 mps 758 mmHg 54%
    09:00 +20°C° 0 mm 2 mps 758 mmHg 50%
    10:00 +23°C° 0 mm 2 mps 758 mmHg 45%
    11:00 +24°C° 0 mm 2 mps 758 mmHg 41%
    12:00 +24°C° 0 mm 2 mps 758 mmHg 39%
    13:00 +25°C° 0 mm 1 mps 758 mmHg 37%
    14:00 +26°C° 0 mm 1 mps 758 mmHg 35%
    15:00 +26°C° 0 mm 1 mps 758 mmHg 36%
    16:00 +26°C° 0 mm 1 mps 758 mmHg 37%
    17:00 +25°C° 0 mm 2 mps 757 mmHg 38%
    18:00 +24°C° 0 mm 2 mps 758 mmHg 43%
    19:00 +23°C° 0 mm 2 mps 758 mmHg 48%
    20:00 +21°C° 0 mm 2 mps 758 mmHg 52%
    21:00 +20°C° 0 mm 2 mps 758 mmHg 55%
    22:00 +19°C° 0 mm 2 mps 758 mmHg 58%
    23:00 +18°C° 0 mm 2 mps 758 mmHg 61%

    25 June, Monday

    Time Temperature Precipitation Wind Pressure Humidity
    00:00 +18°C° 0 mm 2 mps 758 mmHg 63%
    01:00 +18°C° 0 mm 1 mps 758 mmHg 64%
    02:00 +18°C° 0 mm 1 mps 758 mmHg 65%
    03:00 +18°C° 0 mm 1 mps 759 mmHg 66%
    04:00 +18°C° 0 mm 1 mps 759 mmHg 67%
    05:00 +16°C° 0 mm 1 mps 759 mmHg 68%
    06:00 +18°C° 0 mm 2 mps 759 mmHg 62%
    07:00 +20°C° 0 mm 2 mps 759 mmHg 56%
    08:00 +22°C° 0 mm 3 mps 759 mmHg 51%
    09:00 +25°C° 0 mm 3 mps 759 mmHg 47%
    10:00 +26°C° 0 mm 3 mps 759 mmHg 42%
    11:00 +27°C° 0 mm 4 mps 759 mmHg 38%
    12:00 +27°C° 0 mm 4 mps 759 mmHg 39%
    13:00 +27°C° 0 mm 4 mps 759 mmHg 39%
    14:00 +27°C° 0 mm 4 mps 759 mmHg 40%
    15:00 +27°C° 0 mm 4 mps 759 mmHg 40%
    16:00 +27°C° 0 mm 3 mps 758 mmHg 40%
    17:00 +27°C° 0 mm 3 mps 758 mmHg 40%
    18:00 +25°C° 0 mm 3 mps 758 mmHg 44%
    19:00 +24°C° 0 mm 2 mps 758 mmHg 48%
    20:00 +22°C° 0 mm 1 mps 758 mmHg 52%
    21:00 +21°C° 0 mm 2 mps 758 mmHg 53%
    22:00 +20°C° 0 mm 2 mps 758 mmHg 53%
    23:00 +20°C° 0 mm 2 mps 758 mmHg 54%

    26 June, Tuesday

    Time Temperature Precipitation Wind Pressure Humidity
    00:00 +19°C° 0 mm 3 mps 758 mmHg 56%
    01:00 +19°C° 0 mm 3 mps 758 mmHg 58%
    02:00 +18°C° 0 mm 4 mps 758 mmHg 60%
    03:00 +18°C° 0 mm 4 mps 758 mmHg 63%
    04:00 +18°C° 0 mm 4 mps 758 mmHg 65%
    05:00 +18°C° 0 mm 4 mps 758 mmHg 68%
    06:00 +20°C° 0 mm 5 mps 758 mmHg 62%
    07:00 +22°C° 0 mm 5 mps 758 mmHg 56%
    08:00 +24°C° 0 mm 6 mps 758 mmHg 51%
    09:00 +26°C° 0 mm 6 mps 757 mmHg 47%
    10:00 +27°C° 0 mm 6 mps 757 mmHg 43%
    11:00 +28°C° 0 mm 7 mps 757 mmHg 38%
    12:00 +29°C° 0 mm 6 mps 757 mmHg 37%
    13:00 +29°C° 0 mm 6 mps 756 mmHg 36%
    14:00 +30°C° 0 mm 6 mps 756 mmHg 35%
    15:00 +30°C° 0 mm 6 mps 756 mmHg 36%
    16:00 +30°C° 0 mm 5 mps 755 mmHg 36%
    17:00 +30°C° 0 mm 5 mps 755 mmHg 37%
    18:00 +28°C° 0 mm 4 mps 755 mmHg 42%
    19:00 +27°C° 0 mm 4 mps 755 mmHg 47%
    20:00 +25°C° 0 mm 4 mps 755 mmHg 52%
    21:00 +25°C° 0 mm 4 mps 754 mmHg 53%
    22:00 +25°C° 0 mm 5 mps 754 mmHg 54%
    23:00 +24°C° 0 mm 6 mps 754 mmHg 55%
    Show more